Location: ČR
(50.0000°N, 15.0000°E)
Time: 12:00:34
(UTC+02:00)

A-11 Canister half - Pass Details

Date: 18 March 2026
Orbit: 1514 x 1685 km, 47.2° (Epoch: 16 April)

Event Time Altitude Azimuth Distance (km) Brightness Sun altitude
Rises 21:05:47 0° 287° (WNW) 4,943 12.8 -27.4°
Reaches altitude 10° 21:10:32 10° 269° (W) 3,950 11.7 -28.0°
Maximum altitude 21:16:07 16° 235° (SW) 3,437 10.9 -28.7°
Drops below altitude 10° 21:21:39 10° 200° (SSW) 3,908 10.9 -29.3°
Enters shadow 21:22:34 - 196° (SSW) 4,064 11.0 -29.5°
Sets 21:26:22 0° 182° (S) 4,866 - -29.9°
